LA5PPA-1 Weather Reports


Display with metric or nautical units.
time (UTC)temp
F
wind
direction
speed
MPH
gust
MPH
rain 1hr
in
rain 24hr
in
rain mn
in
humidity
%
barometer
mb
20260903205346 41 35 0.0 0.0 0.00 0.00 0.00 80 1007.9
20260903204846 42 35 0.0 0.0 0.00 0.00 0.00 79 1007.9
20260903204747 42 35 0.0 0.0 0.00 0.00 0.00 79 1007.9
20260903204346 42 35 0.0 0.0 0.00 0.00 0.00 78 1007.9
20260903203846 42 70 0.0 0.0 0.00 0.00 0.00 78 1007.9
20260903203647 42 70 0.0 0.0 0.00 0.00 0.00 78 1008.0
20260903203346 42 70 0.0 0.0 0.00 0.00 0.00 78 1008.0
20260903202846 43 70 0.0 0.0 0.00 0.00 0.00 77 1008.0
20260903202547 43 70 0.0 0.0 0.00 0.00 0.00 77 1008.0
20260903202346 43 37 0.0 0.0 0.00 0.00 0.00 77 1008.0
20260903201846 43 37 0.0 1.0 0.00 0.00 0.00 76 1008.0
20260903201447 43 196 0.0 1.0 0.00 0.00 0.00 76 1008.0
20260903201346 43 196 0.0 1.0 0.00 0.00 0.00 76 1008.1
20260903200846 44 88 0.0 0.0 0.00 0.00 0.00 75 1008.2
20260903200346 44 88 0.0 0.0 0.00 0.00 0.00 75 1008.2
20260903195846 44 88 0.0 0.0 0.00 0.00 0.00 74 1008.2
20260903195346 44 88 0.0 0.0 0.00 0.00 0.00 73 1008.2
20260903195247 44 88 0.0 0.0 0.00 0.00 0.00 73 1008.2
20260903194846 44 88 0.0 0.0 0.00 0.00 0.00 73 1008.3
20260903194346 45 88 0.0 0.0 0.00 0.00 0.00 72 1008.4
20260903194147 45 88 0.0 0.0 0.00 0.00 0.00 71 1008.3
20260903193846 45 88 0.0 3.0 0.00 0.00 0.00 71 1008.3
20260903193346 45 123 0.0 3.0 0.00 0.00 0.00 71 1008.4
20260903193047 45 167 1.0 1.0 0.00 0.00 0.00 71 1008.3
20260903192846 45 230 0.0 0.0 0.00 0.00 0.00 71 1008.3
20260903192346 46 230 0.0 4.0 0.00 0.00 0.00 70 1008.3
20260903191947 46 80 0.0 6.0 0.00 0.00 0.00 70 1008.3
20260903191846 46 111 3.0 6.0 0.00 0.00 0.00 69 1008.3
20260903191346 46 68 1.0 4.0 0.00 0.00 0.00 69 1008.3
20260903190846 46 142 1.0 5.0 0.00 0.00 0.00 68 1008.3
20260903190346 46 119 1.0 2.0 0.00 0.00 0.00 68 1008.3
20260903185846 47 182 0.0 4.0 0.00 0.00 0.00 67 1008.3
20260903185747 47 97 0.0 3.0 0.00 0.00 0.00 67 1008.2
20260903185346 47 136 0.0 4.0 0.00 0.00 0.00 66 1008.3
20260903184846 47 97 1.0 4.0 0.00 0.00 0.00 66 1008.2
20260903184647 47 136 0.0 4.0 0.00 0.00 0.00 66 1008.3
20260903184346 47 127 0.0 4.0 0.00 0.00 0.00 66 1008.3
20260903183846 48 84 0.0 2.0 0.00 0.00 0.00 65 1008.3
20260903183547 48 90 0.0 0.0 0.00 0.00 0.00 64 1008.3
20260903183346 48 90 0.0 0.0 0.00 0.00 0.00 63 1008.2
20260903182846 49 90 0.0 3.0 0.00 0.00 0.00 62 1008.3
20260903182447 50 90 0.0 3.0 0.00 0.00 0.00 61 1008.3
20260903182346 50 112 3.0 3.0 0.00 0.00 0.00 60 1008.3
20260903181846 50 170 1.0 5.0 0.00 0.00 0.00 60 1008.3
20260903181346 50 130 1.0 3.0 0.00 0.00 0.00 59 1008.3
20260903180846 51 201 0.0 2.0 0.00 0.00 0.00 59 1008.3
20260903180346 51 255 2.0 2.0 0.00 0.00 0.00 58 1008.3
20260903180247 51 99 0.0 1.0 0.00 0.00 0.00 58 1008.3
20260903175846 52 161 0.0 7.0 0.00 0.00 0.00 57 1008.3
20260903175346 52 84 0.0 4.0 0.00 0.00 0.00 57 1008.4
20260903175147 52 154 0.0 4.0 0.00 0.00 0.00 57 1008.4
20260903174846 52 111 0.0 5.0 0.00 0.00 0.00 56 1008.4
20260903174346 53 178 0.0 2.0 0.00 0.00 0.00 56 1008.4
20260903174047 53 161 1.0 2.0 0.00 0.00 0.00 56 1008.4
20260903173846 53 56 0.0 3.0 0.00 0.00 0.00 55 1008.4
20260903173346 53 171 1.0 3.0 0.00 0.00 0.00 55 1008.4
20260903172947 53 143 0.0 2.0 0.00 0.00 0.00 55 1008.4
20260903172846 53 143 0.0 2.0 0.00 0.00 0.00 55 1008.4
20260903172346 54 133 0.0 2.0 0.00 0.00 0.00 54 1008.4
20260903171846 54 182 0.0 4.0 0.00 0.00 0.00 53 1008.5
20260903171346 55 132 3.0 5.0 0.00 0.00 0.00 53 1008.5
20260903170846 55 139 0.0 4.0 0.00 0.00 0.00 52 1008.7
20260903170747 55 139 0.0 5.0 0.00 0.00 0.00 52 1008.7
20260903170346 55 82 1.0 6.0 0.00 0.00 0.00 51 1008.7
20260903165846 56 126 3.0 4.0 0.00 0.00 0.00 51 1008.7
20260903165647 56 74 0.0 5.0 0.00 0.00 0.00 50 1008.8
20260903165346 56 143 2.0 5.0 0.00 0.00 0.00 50 1008.8
20260903164846 56 136 2.0 5.0 0.00 0.00 0.00 50 1008.8
20260903164547 56 140 0.0 4.0 0.00 0.00 0.00 51 1008.8
20260903164346 56 140 2.0 4.0 0.00 0.00 0.00 51 1008.8
20260903163846 56 142 0.0 4.0 0.00 0.00 0.00 50 1008.9
20260903163447 57 153 0.0 4.0 0.00 0.00 0.00 50 1008.9
20260903163346 57 153 0.0 4.0 0.00 0.00 0.00 50 1008.9
20260903162846 57 104 0.0 0.0 0.00 0.00 0.00 50 1008.9
20260903162346 57 104 0.0 4.0 0.00 0.00 0.00 49 1008.9
20260903161846 58 243 0.0 6.0 0.00 0.00 0.00 47 1008.9
20260903161346 58 61 0.0 3.0 0.00 0.00 0.00 47 1008.9
20260903161247 58 210 0.0 3.0 0.00 0.00 0.00 47 1008.9
20260903160846 58 146 0.0 1.0 0.00 0.00 0.00 47 1009.0
20260903160346 58 146 0.0 5.0 0.00 0.00 0.00 47 1009.0
20260903160147 58 237 0.0 4.0 0.00 0.00 0.00 47 1009.0
20260903155846 58 158 0.0 4.0 0.00 0.00 0.00 46 1009.0
20260903155347 59 330 0.0 3.0 0.00 0.00 0.00 44 1009.0
20260903155047 59 225 0.0 3.0 0.00 0.00 0.00 43 1009.0
20260903154846 59 296 1.0 3.0 0.00 0.00 0.00 42 1009.0
20260903154346 59 315 0.0 3.0 0.00 0.00 0.00 42 1009.1
20260903153947 60 310 0.0 3.0 0.00 0.00 0.00 41 1009.1
20260903153846 60 310 0.0 3.0 0.00 0.00 0.00 41 1009.1
20260903153346 60 306 0.0 4.0 0.00 0.00 0.00 42 1009.2
20260903152846 60 246 3.0 4.0 0.00 0.00 0.00 42 1009.2
20260903152346 59 272 0.0 1.0 0.00 0.00 0.00 40 1009.2
20260903151846 59 260 0.0 6.0 0.00 0.00 0.00 39 1009.3
20260903151747 60 260 2.0 6.0 0.00 0.00 0.00 41 1009.3
20260903151346 60 327 3.0 7.0 0.00 0.00 0.00 39 1009.3
20260903150846 59 262 0.0 5.0 0.00 0.00 0.00 39 1009.3
20260903150647 59 264 0.0 5.0 0.00 0.00 0.00 42 1009.4
20260903150346 59 292 3.0 3.0 0.00 0.00 0.00 41 1009.3
20260903145846 59 285 2.0 4.0 0.00 0.00 0.00 38 1009.3
20260903145547 59 7 0.0 3.0 0.00 0.00 0.00 41 1009.4
20260903145346 58 7 0.0 5.0 0.00 0.00 0.00 39 1009.4
20260903144846 58 310 0.0 4.0 0.00 0.00 0.00 42 1009.6
20260903144447 58 319 4.0 4.0 0.00 0.00 0.00 43 1009.6
20260903144346 58 322 0.0 4.0 0.00 0.00 0.00 43 1009.3
20260903143846 57 289 0.0 2.0 0.00 0.00 0.00 43 1009.6
20260903143346 57 278 0.0 0.0 0.00 0.00 0.00 45 1009.7
20260903142846 57 278 0.0 2.0 0.00 0.00 0.00 46 1009.7
20260903142346 57 330 0.0 3.0 0.00 0.00 0.00 47 1009.7
20260903142247 57 330 0.0 3.0 0.00 0.00 0.00 47 1009.7
20260903141846 57 243 0.0 5.0 0.00 0.00 0.00 47 1009.7
20260903141346 57 315 0.0 4.0 0.00 0.00 0.00 46 1009.8
20260903141147 57 261 0.0 1.0 0.00 0.00 0.00 48 1009.8
20260903140846 57 261 0.0 1.0 0.00 0.00 0.00 47 1009.8
20260903140346 57 261 0.0 0.0 0.00 0.00 0.00 47 1009.8
20260903140047 57 261 0.0 0.0 0.00 0.00 0.00 48 1009.8
20260903135846 57 261 0.0 0.0 0.00 0.00 0.00 48 1009.9
20260903135346 56 261 0.0 0.0 0.00 0.00 0.00 49 1009.9
20260903134947 56 261 0.0 0.0 0.00 0.00 0.00 48 1009.9
20260903134846 56 261 0.0 1.0 0.00 0.00 0.00 48 1009.9
20260903134346 56 261 0.0 4.0 0.00 0.00 0.00 48 1009.9
20260903133846 56 271 2.0 6.0 0.00 0.00 0.00 47 1009.9
20260903133346 57 323 0.0 8.0 0.00 0.00 0.00 45 1010.0
20260903132846 57 279 0.0 4.0 0.00 0.00 0.00 46 1010.0
20260903132747 57 226 0.0 6.0 0.00 0.00 0.00 46 1010.0
20260903132346 57 320 1.0 6.0 0.00 0.00 0.00 43 1009.7
20260903131846 58 278 0.0 4.0 0.00 0.00 0.00 48 1010.0
20260903131647 57 272 0.0 1.0 0.00 0.00 0.00 46 1010.0
20260903131346 57 326 0.0 5.0 0.00 0.00 0.00 45 1010.0
20260903130846 58 268 0.0 0.0 0.00 0.00 0.00 45 1010.1
20260903130547 58 268 0.0 5.0 0.00 0.00 0.00 46 1010.0
20260903130346 58 268 0.0 6.0 0.00 0.00 0.00 46 1010.0
20260903125846 58 284 5.0 5.0 0.00 0.00 0.00 44 1010.1
20260903125447 58 272 0.0 6.0 0.00 0.00 0.00 43 1010.1
20260903125346 58 292 4.0 6.0 0.00 0.00 0.00 43 1010.1
20260903124846 58 136 1.0 7.0 0.00 0.00 0.00 43 1010.1
20260903124346 58 309 4.0 5.0 0.00 0.00 0.00 45 1010.1
20260903123846 58 29 0.0 7.0 0.00 0.00 0.00 45 1010.2
20260903123346 58 227 1.0 6.0 0.00 0.00 0.00 44 1010.2
20260903123247 58 291 3.0 6.0 0.00 0.00 0.00 43 1010.1
20260903122846 58 275 1.0 9.0 0.00 0.00 0.00 46 1010.2
20260903122346 58 177 0.0 6.0 0.00 0.00 0.00 48 1010.2
20260903122147 57 257 3.0 6.0 0.00 0.00 0.00 47 1010.2
20260903121846 57 292 0.0 5.0 0.00 0.00 0.00 49 1010.2
20260903121346 56 286 0.0 1.0 0.00 0.00 0.00 51 1010.2
20260903121047 56 192 0.0 4.0 0.00 0.00 0.00 50 1010.3
20260903120847 56 192 0.0 5.0 0.00 0.00 0.00 50 1010.3
20260903120347 56 286 0.0 3.0 0.00 0.00 0.00 49 1010.2
20260903115947 57 232 0.0 5.0 0.00 0.00 0.00 48 1010.2
20260903115846 57 250 2.0 5.0 0.00 0.00 0.00 48 1010.3
20260903115347 57 315 0.0 0.0 0.00 0.00 0.00 49 1010.2
20260903114847 57 315 0.0 2.0 0.00 0.00 0.00 49 1010.3
20260903114347 57 285 0.0 5.0 0.00 0.00 0.00 49 1010.2
20260903113847 57 82 0.0 3.0 0.00 0.00 0.00 49 1010.2
20260903113748 56 82 0.0 5.0 0.00 0.00 0.00 49 1010.2
20260903113347 56 300 2.0 5.0 0.00 0.00 0.00 49 1010.2
20260903112847 56 45 0.0 3.0 0.00 0.00 0.00 50 1010.2
20260903112648 56 303 0.0 0.0 0.00 0.00 0.00 48 1010.2
20260903112347 55 303 0.0 1.0 0.00 0.00 0.00 52 1010.2
20260903111847 54 303 0.0 0.0 0.00 0.00 0.00 51 1010.2
20260903111548 54 303 0.0 0.0 0.00 0.00 0.00 52 1010.2
20260903111347 54 303 0.0 1.0 0.00 0.00 0.00 51 1010.2
20260903110847 53 303 1.0 6.0 0.00 0.00 0.00 49 1010.2
20260903110448 54 336 3.0 3.0 0.00 0.00 0.00 52 1010.2
20260903110347 54 74 0.0 2.0 0.00 0.00 0.00 53 1010.3
20260903105847 53 324 0.0 7.0 0.00 0.00 0.00 49 1010.3
20260903105347 55 33 0.0 5.0 0.00 0.00 0.00 49 1010.3
20260903104847 55 18 1.0 6.0 0.00 0.00 0.00 50 1010.3
20260903104347 54 248 0.0 4.0 0.00 0.00 0.00 52 1010.4
20260903104248 54 248 1.0 5.0 0.00 0.00 0.00 53 1010.4
20260903103847 54 240 2.0 7.0 0.00 0.00 0.00 53 1010.6
20260903103347 53 4 0.0 5.0 0.00 0.00 0.00 53 1010.4
20260903103148 53 4 0.0 5.0 0.00 0.00 0.00 51 1010.6
20260903102847 53 120 0.0 7.0 0.00 0.00 0.00 54 1010.6
20260903102347 53 298 0.0 5.0 0.00 0.00 0.00 54 1010.7
20260903102048 53 285 0.0 6.0 0.00 0.00 0.00 54 1010.7
20260903101847 53 313 3.0 6.0 0.00 0.00 0.00 53 1010.7
20260903101347 52 274 0.0 6.0 0.00 0.00 0.00 57 1010.7
20260903100948 51 327 0.0 10.0 0.00 0.00 0.00 55 1010.7
20260903100847 51 326 2.0 10.0 0.00 0.00 0.00 57 1010.8
20260903100347 52 315 0.0 4.0 0.00 0.00 0.00 57 1010.9
20260903095847 52 278 0.0 5.0 0.00 0.00 0.00 56 1010.9
20260903095347 52 338 0.0 4.0 0.00 0.00 0.00 55 1010.9
20260903094847 51 295 0.0 6.0 0.00 0.00 0.00 57 1010.9
20260903094748 51 295 0.0 6.0 0.00 0.00 0.00 57 1010.9
20260903094347 51 80 5.0 7.0 0.00 0.00 0.00 60 1010.9
20260903093847 50 319 3.0 6.0 0.00 0.00 0.00 60 1010.9
20260903093648 50 302 0.0 6.0 0.00 0.00 0.00 59 1010.9
20260903093347 50 333 4.0 9.0 0.00 0.00 0.00 57 1011.0
20260903092847 50 324 0.0 5.0 0.00 0.00 0.00 59 1011.0
20260903092548 49 284 2.0 6.0 0.00 0.00 0.00 59 1011.0
20260903092347 49 286 3.0 6.0 0.00 0.00 0.00 58 1011.1
20260903091847 49 213 0.0 9.0 0.00 0.00 0.00 60 1011.1
20260903091449 49 316 6.0 9.0 0.00 0.00 0.00 58 1011.1
20260903091347 49 306 4.0 7.0 0.00 0.00 0.00 59 1011.1
20260903090847 49 330 5.0 12.0 0.00 0.00 0.00 60 1011.1
20260903090347 48 307 10.0 10.0 0.00 0.00 0.00 59 1011.1
20260903085847 49 310 6.0 7.0 0.00 0.00 0.00 61 1011.1
20260903085347 48 337 2.0 6.0 0.00 0.00 0.00 61 1011.2
20260903085248 48 315 4.0 6.0 0.00 0.00 0.00 60 1011.2
20260903084847 48 298 2.0 11.0 0.00 0.00 0.00 61 1011.1
20260903084347 48 348 3.0 9.0 0.00 0.00 0.00 61 1011.1
20260903084148 48 323 3.0 9.0 0.00 0.00 0.00 62 1011.2
20260903083847 48 307 4.0 7.0 0.00 0.00 0.00 61 1011.3
20260903083347 47 317 1.0 7.0 0.00 0.00 0.00 68 1011.2
20260903083048 47 288 0.0 5.0 0.00 0.00 0.00 68 1011.2
20260903082847 47 272 0.0 6.0 0.00 0.00 0.00 67 1011.1
20260903082347 47 317 5.0 5.0 0.00 0.00 0.00 67 1011.2
20260903081948 46 293 1.0 10.0 0.00 0.00 0.00 68 1011.3
20260903081847 46 300 0.0 10.0 0.00 0.00 0.00 68 1011.3
20260903081347 46 289 2.0 9.0 0.00 0.00 0.00 68 1011.2
20260903080847 46 317 5.0 9.0 0.00 0.00 0.00 68 1011.2
20260903080347 46 309 4.0 7.0 0.00 0.00 0.00 70 1011.3
20260903075847 45 316 0.0 9.0 0.00 0.00 0.00 70 1011.3
20260903075748 45 306 2.0 11.0 0.00 0.00 0.00 70 1011.5
20260903075347 45 319 4.0 11.0 0.00 0.00 0.00 70 1011.5
20260903074847 44 340 6.0 11.0 0.00 0.00 0.00 72 1011.5
20260903074648 44 293 0.0 11.0 0.00 0.00 0.00 71 1011.5
20260903074347 44 306 2.0 9.0 0.00 0.00 0.00 72 1011.5
20260903073847 44 300 6.0 14.0 0.00 0.00 0.00 73 1011.5
20260903073548 44 299 5.0 10.0 0.00 0.00 0.00 73 1011.6
20260903073347 43 322 5.0 10.0 0.00 0.00 0.00 74 1011.6
20260903072847 43 324 2.0 8.0 0.00 0.00 0.00 73 1011.7
20260903072448 43 307 5.0 9.0 0.00 0.00 0.00 73 1011.8
20260903072347 43 326 5.0 9.0 0.00 0.00 0.00 74 1011.8
20260903071847 43 322 1.0 8.0 0.00 0.00 0.00 75 1011.8
20260903071347 43 309 2.0 9.0 0.00 0.00 0.00 75 1011.8
20260903070847 43 336 4.0 6.0 0.00 0.00 0.00 75 1011.9
20260903070347 43 310 5.0 6.0 0.00 0.00 0.00 74 1011.9
20260903070248 43 323 4.0 6.0 0.00 0.00 0.00 74 1011.9
20260903065847 43 316 0.0 5.0 0.00 0.00 0.00 75 1011.9
20260903065347 43 299 3.0 7.0 0.00 0.00 0.00 74 1011.8
20260903065148 43 275 7.0 7.0 0.00 0.00 0.00 74 1011.9
20260903064847 43 312 0.0 7.0 0.00 0.00 0.00 75 1011.8
20260903064347 42 306 1.0 8.0 0.00 0.00 0.00 75 1011.8
20260903064048 42 291 0.0 7.0 0.00 0.00 0.00 75 1011.7
20260903063847 42 334 0.0 4.0 0.00 0.00 0.00 76 1011.8
20260903063347 42 261 0.0 5.0 0.00 0.00 0.00 76 1011.9
20260903062948 42 277 2.0 7.0 0.00 0.00 0.00 76 1011.8
20260903062847 42 272 2.0 7.0 0.00 0.00 0.00 77 1011.8
20260903062347 42 291 1.0 4.0 0.00 0.00 0.00 78 1011.8
20260903061847 41 282 0.0 4.0 0.00 0.00 0.00 78 1011.8
20260903061347 41 261 0.0 4.0 0.00 0.00 0.00 79 1011.8
20260903060847 41 302 0.0 1.0 0.00 0.00 0.00 80 1012.0
20260903060748 41 281 0.0 0.0 0.00 0.00 0.00 81 1012.0
20260903060347 40 260 0.0 0.0 0.00 0.00 0.00 82 1012.0
20260903055847 40 260 0.0 0.0 0.00 0.00 0.00 82 1012.0
20260903055648 40 260 0.0 0.0 0.00 0.00 0.00 83 1011.9
20260903055347 40 260 0.0 2.0 0.00 0.00 0.00 83 1011.8
20260903054847 40 285 2.0 5.0 0.00 0.00 0.00 83 1011.6
20260903054548 39 322 2.0 3.0 0.00 0.00 0.00 83 1011.7
20260903054347 39 94 0.0 2.0 0.00 0.00 0.00 83 1011.7
20260903053847 39 150 2.0 4.0 0.00 0.00 0.00 83 1011.7
20260903053448 39 136 3.0 4.0 0.00 0.00 0.00 83 1011.7
20260903053347 39 120 2.0 3.0 0.00 0.00 0.00 82 1011.7
20260903052847 40 105 1.0 3.0 0.00 0.00 0.00 82 1011.5
20260903052347 40 293 0.0 2.0 0.00 0.00 0.00 82 1011.3
20260903051847 40 317 2.0 4.0 0.00 0.00 0.00 82 1011.2
20260903051347 40 286 0.0 5.0 0.00 0.00 0.00 82 1011.5
20260903051248 40 330 1.0 5.0 0.00 0.00 0.00 82 1011.5
20260903050847 40 12 0.0 0.0 0.00 0.00 0.00 82 1011.5
20260903050347 40 12 0.0 3.0 0.00 0.00 0.00 82 1011.5
20260903050148 40 291 0.0 3.0 0.00 0.00 0.00 82 1011.3
20260903045847 40 291 0.0 5.0 0.00 0.00 0.00 82 1011.3
20260903045347 40 310 1.0 7.0 0.00 0.00 0.00 82 1011.2
20260903045048 39 324 4.0 8.0 0.00 0.00 0.00 83 1011.2
20260903044847 39 333 5.0 8.0 0.00 0.00 0.00 83 1011.3
20260903044347 39 344 2.0 8.0 0.00 0.00 0.00 83 1011.2
20260903043948 39 229 0.0 8.0 0.00 0.00 0.00 83 1011.2
20260903043847 39 336 1.0 4.0 0.00 0.00 0.00 84 1011.2
20260903043347 39 331 3.0 6.0 0.00 0.00 0.00 84 1011.2
20260903042847 39 317 3.0 4.0 0.00 0.00 0.00 84 1011.3
20260903042347 39 303 0.0 4.0 0.00 0.00 0.00 84 1011.2
20260903041847 39 322 0.0 3.0 0.00 0.00 0.00 84 1011.2
20260903041748 39 330 1.0 3.0 0.00 0.00 0.00 84 1011.3
20260903041347 39 302 0.0 8.0 0.00 0.00 0.00 84 1011.2
20260903040847 39 248 0.0 3.0 0.00 0.00 0.00 85 1011.2
20260903040648 39 340 1.0 5.0 0.00 0.00 0.00 85 1011.1
20260903040347 38 289 1.0 5.0 0.00 0.00 0.00 85 1011.1
20260903035847 39 285 0.0 0.0 0.00 0.00 0.00 84 1011.2
20260903035548 39 285 0.0 1.0 0.00 0.00 0.00 84 1011.1
20260903035347 39 285 0.0 2.0 0.00 0.00 0.00 84 1011.1
20260903034847 39 326 0.0 2.0 0.00 0.00 0.00 84 1011.2
20260903034448 39 288 0.0 3.0 0.00 0.00 0.00 83 1011.2
20260903034347 39 288 0.0 3.0 0.00 0.00 0.00 83 1011.2
20260903033847 40 267 0.0 4.0 0.00 0.00 0.00 83 1011.1
20260903033347 40 351 1.0 4.0 0.00 0.00 0.00 83 1011.1
20260903032847 40 326 0.0 4.0 0.00 0.00 0.00 83 1011.0
20260903032347 40 327 0.0 5.0 0.00 0.00 0.00 83 1011.1
20260903032248 40 282 1.0 8.0 0.00 0.00 0.00 83 1010.9
20260903031847 40 307 1.0 10.0 0.00 0.00 0.00 83 1010.9
20260903031347 40 282 9.0 9.0 0.00 0.00 0.00 84 1010.9
20260903031148 40 315 3.0 13.0 0.00 0.00 0.00 84 1010.9
20260903030847 40 12 1.0 13.0 0.00 0.00 0.00 84 1010.9
20260903030347 40 291 2.0 6.0 0.00 0.00 0.00 84 1010.9
20260903030048 40 279 3.0 9.0 0.00 0.00 0.00 84 1010.9
20260903025847 40 320 4.0 9.0 0.00 0.00 0.00 84 1010.9
20260903025347 40 319 2.0 13.0 0.00 0.00 0.00 85 1011.0
20260903024948 40 313 2.0 13.0 0.00 0.00 0.00 85 1011.0
20260903024847 40 285 1.0 4.0 0.00 0.00 0.00 85 1011.1
20260903024347 40 316 1.0 4.0 0.00 0.00 0.00 85 1011.0
20260903023847 40 327 3.0 3.0 0.00 0.00 0.00 85 1011.1
20260903023347 40 316 1.0 5.0 0.00 0.00 0.00 85 1011.1
20260903022847 40 286 0.0 9.0 0.00 0.00 0.00 85 1011.1
20260903022748 40 322 1.0 9.0 0.00 0.00 0.00 85 1011.1
20260903022347 40 333 1.0 5.0 0.00 0.00 0.00 85 1011.1
20260903021847 39 275 3.0 5.0 0.00 0.00 0.00 86 1011.1
20260903021648 39 315 3.0 6.0 0.00 0.00 0.00 85 1011.1
20260903021347 39 320 4.0 6.0 0.00 0.00 0.00 85 1011.1
20260903020847 39 327 1.0 5.0 0.00 0.00 0.00 85 1011.1
20260903020548 39 309 3.0 5.0 0.00 0.00 0.00 85 1011.1
20260903020347 39 261 2.0 5.0 0.00 0.00 0.00 84 1011.1
20260903015847 39 281 4.0 5.0 0.00 0.00 0.00 84 1011.0
20260903015448 39 320 2.0 5.0 0.00 0.00 0.00 84 1011.0
20260903015347 39 309 2.0 5.0 0.00 0.00 0.00 84 1011.0
20260903014847 40 292 2.0 6.0 0.00 0.00 0.00 84 1011.0
20260903014347 40 282 0.0 7.0 0.00 0.00 0.00 84 1011.1
20260903013847 40 296 1.0 3.0 0.00 0.00 0.00 84 1011.1
20260903013347 40 286 0.0 5.0 0.00 0.00 0.00 83 1011.1
20260903013248 40 286 0.0 5.0 0.00 0.00 0.00 83 1011.2
20260903012848 40 299 1.0 4.0 0.00 0.00 0.00 83 1011.3
20260903012347 40 284 2.0 2.0 0.00 0.00 0.00 83 1011.3
20260903012149 40 278 0.0 2.0 0.00 0.00 0.00 83 1011.3
20260903011848 40 305 0.0 0.0 0.00 0.00 0.00 83 1011.5
20260903011348 40 305 0.0 4.0 0.00 0.00 0.00 83 1011.5
20260903011048 40 201 1.0 4.0 0.00 0.00 0.00 83 1011.5
20260903010848 40 237 0.0 4.0 0.00 0.00 0.00 83 1011.3
20260903010348 40 327 0.0 4.0 0.00 0.00 0.00 83 1011.5
20260903005949 40 306 0.0 3.0 0.00 0.00 0.00 83 1011.5
20260903005848 40 254 0.0 3.0 0.00 0.00 0.00 83 1011.5
20260903005348 40 286 0.0 4.0 0.00 0.00 0.00 83 1011.6
20260903004848 40 288 1.0 4.0 0.00 0.00 0.00 83 1011.6
20260903004348 40 303 2.0 4.0 0.00 0.00 0.00 83 1011.6
20260903003848 40 293 3.0 5.0 0.00 0.00 0.00 83 1011.6
20260903003749 40 330 1.0 5.0 0.00 0.00 0.00 83 1011.6
20260903003348 40 268 1.0 6.0 0.00 0.00 0.00 83 1011.6
20260903002848 40 281 2.0 4.0 0.00 0.00 0.00 83 1011.7
20260903002649 39 149 0.0 2.0 0.00 0.00 0.00 83 1011.6
20260903002348 39 312 0.0 4.0 0.00 0.00 0.00 83 1011.6
20260903001848 39 313 0.0 3.0 0.00 0.00 0.00 83 1011.6
20260903001549 39 262 2.0 5.0 0.00 0.00 0.00 83 1011.6
20260903001348 39 278 0.0 5.0 0.00 0.00 0.00 83 1011.6
20260903000848 39 286 1.0 5.0 0.00 0.00 0.00 83 1011.6
20260903000449 39 288 1.0 7.0 0.00 0.00 0.00 83 1011.6
20260903000348 39 293 0.0 7.0 0.00 0.00 0.00 83 1011.6
20260902235848 39 337 3.0 4.0 0.00 0.00 0.00 83 1011.6
20260902235348 39 310 0.0 6.0 0.00 0.00 0.00 83 1011.6
20260902234848 39 292 4.0 6.0 0.00 0.00 0.00 83 1011.6
20260902234348 39 277 2.0 4.0 0.00 0.00 0.00 83 1011.6
20260902234249 39 310 0.0 4.0 0.00 0.00 0.00 83 1011.6
20260902233848 39 305 1.0 6.0 0.00 0.00 0.00 82 1011.6
20260902233348 39 281 1.0 7.0 0.00 0.00 0.00 82 1011.6
20260902233149 39 316 3.0 8.0 0.00 0.00 0.00 82 1011.7
20260902232848 39 295 2.0 8.0 0.00 0.00 0.00 82 1011.6
20260902232348 39 268 2.0 7.0 0.00 0.00 0.00 82 1011.6
20260902232049 39 316 4.0 7.0 0.00 0.00 0.00 83 1011.6
20260902231848 39 320 0.0 6.0 0.00 0.00 0.00 82 1011.7
20260902231348 39 306 6.0 6.0 0.00 0.00 0.00 81 1011.5
20260902230949 39 291 0.0 9.0 0.00 0.00 0.00 82 1011.5
20260902230848 39 315 3.0 9.0 0.00 0.00 0.00 82 1011.5
20260902230348 39 306 3.0 7.0 0.00 0.00 0.00 81 1011.5
20260902225848 39 243 1.0 9.0 0.00 0.00 0.00 81 1011.6
20260902225348 39 303 4.0 7.0 0.00 0.00 0.00 81 1011.5
20260902224848 39 296 0.0 7.0 0.00 0.00 0.00 80 1011.5
20260902224749 39 275 3.0 7.0 0.00 0.00 0.00 80 1011.5
20260902224348 39 298 2.0 8.0 0.00 0.00 0.00 80 1011.3
20260902223848 39 295 5.0 6.0 0.00 0.00 0.00 80 1011.5
20260902223649 40 326 2.0 6.0 0.00 0.00 0.00 80 1011.5
20260902223348 40 329 1.0 6.0 0.00 0.00 0.00 79 1011.7
20260902222848 40 284 5.0 10.0 0.00 0.00 0.00 79 1011.8
20260902222549 40 293 5.0 9.0 0.00 0.00 0.00 79 1011.7
20260902222348 40 205 3.0 9.0 0.00 0.00 0.00 79 1011.7
20260902221848 40 295 1.0 11.0 0.00 0.00 0.00 79 1011.7
20260902221449 39 9 5.0 9.0 0.00 0.00 0.00 79 1011.7
20260902221348 40 282 6.0 7.0 0.00 0.00 0.00 78 1011.6
20260902220848 40 302 1.0 6.0 0.00 0.00 0.00 77 1011.7
20260902220348 40 307 1.0 8.0 0.00 0.00 0.00 77 1011.7
20260902215848 40 324 0.0 7.0 0.00 0.00 0.00 76 1011.6
20260902215348 40 302 3.0 10.0 0.00 0.00 0.00 76 1011.6
20260902215249 40 323 1.0 10.0 0.00 0.00 0.00 76 1011.6
20260902214848 40 327 5.0 8.0 0.00 0.00 0.00 76 1011.6
20260902214348 40 313 1.0 6.0 0.00 0.00 0.00 76 1011.6
20260902214149 40 306 3.0 9.0 0.00 0.00 0.00 76 1011.7
20260902213848 40 324 3.0 9.0 0.00 0.00 0.00 76 1011.6
20260902213348 40 315 3.0 9.0 0.00 0.00 0.00 76 1011.6
20260902213049 40 309 3.0 9.0 0.00 0.00 0.00 76 1011.7
20260902212848 40 320 6.0 7.0 0.00 0.00 0.00 76 1011.8
20260902212348 40 309 6.0 8.0 0.00 0.00 0.00 75 1011.8
20260902211949 40 320 4.0 12.0 0.00 0.00 0.00 75 1011.8
20260902211848 40 288 2.0 12.0 0.00 0.00 0.00 75 1011.7
20260902211348 40 310 7.0 9.0 0.00 0.00 0.00 75 1011.6
20260902210848 41 282 1.0 10.0 0.00 0.00 0.00 74 1011.6
20260902210348 40 306 5.0 13.0 0.00 0.00 0.00 75 1011.7
20260902205848 40 302 3.0 12.0 0.00 0.00 0.00 75 1011.7
20260902205749 40 319 2.0 12.0 0.00 0.00 0.00 75 1011.7